Regional Weather Roundup
Issued by NWS

Home | Current Version | Previous Version | Text Only | Print | Product List | Glossary On
Versions: 1 2 3 4 5 6 7 8 9 10 11 12 13 14 15 16 17 18 19 20 21 22 23 24 25 26 27 28 29 30 31 32 33 34 35 36 37 38 39 40 41 42 43 44 45 46 47 48 49 50
000
ASUS43 KDMX 280007
RWRIA

WEATHER ROUNDUP FOR IOWA
NATIONAL WEATHER SERVICE DES MOINES IA
700 PM CDT SUN JUL 27 2014

NOTE: "FAIR" INDICATES FEW OR NO CLOUDS BELOW 12,000 FEET WITH NO
SIGNIFICANT WEATHER AND/OR OBSTRUCTIONS TO VISIBILITY.

* - THESE STATIONS ARE NOT NWS STATIONS...THUS NOT UNDER NWS
QUALITY CONTROL.  THEY ALSO DO NOT REPORT WEATHER SUCH
AS PRECIPITATION OR FOG.

IAZ001>003-012>014-020>022-031>034-043>046-280100-
   NORTHWEST IOWA

CITY           SKY/WX    TMP DP  RH WIND       PRES   REMARKS
CARROLL *      MOSUNNY   72  57  60 NW15G21   30.10R
CHEROKEE *     MOSUNNY   71  58  63 N15G22    30.11S
DENISON *      MOSUNNY   73  57  56 N13G24    30.10R
LE MARS *      SUNNY     72  59  64 N17       30.14R
ORANGE CITY *  SUNNY     72  54  53 N17G24    30.14R
SHELDON *      PTSUNNY   68  57  68 N15       30.12S
SIOUX CITY     PTSUNNY   77  57  50 N17G23    30.12R
6HR MIN TEMP:  76; 6HR MAX TEMP:  80;

SPENCER        MOSUNNY   71  56  58 NW17G25   30.11R
6HR MIN TEMP:  68; 6HR MAX TEMP:  73;

STORM LAKE *   SUNNY     70  59  68 N16G25    30.12R
$$

IAZ055>058-069>071-079>083-090>094-280100-
   SOUTHWEST IOWA

CITY           SKY/WX    TMP DP  RH WIND       PRES   REMARKS
ATLANTIC *     MOSUNNY   73  57  56 NW16G24   30.09S
AUDUBON *      SUNNY     75  61  60 N13G18    30.11S
CLARINDA *     PTSUNNY   77  59  53 N15G22    30.10R
COUNCIL BLFS * MOSUNNY   75  59  57 N12G18    30.10S
CRESTON *      MOSUNNY   73  55  53 NW18      30.09R
HARLAN  *      MOSUNNY   73  57  56 N14G26    30.14S
LAMONI         PTSUNNY   75  58  55 N12       30.06R
6HR MIN TEMP:  74; 6HR MAX TEMP:  82;

RED OAK *      MOSUNNY   77  59  53 N14G23    30.10R
SHENANDOAH *   MOSUNNY   77  57  50 N16       30.10R
$$

IAZ047>049-059>061-072>074-084-280100-
   CENTRAL IOWA

CITY           SKY/WX    TMP DP  RH WIND       PRES   REMARKS
AMES           MOSUNNY   72  57  59 NW16G25   30.04R
6HR MIN TEMP:  72; 6HR MAX TEMP:  76;

ANKENY *       SUNNY     73  57  56 NW15G24   30.04S
CHARITON *     PTSUNNY   73  59  60 N16G26    30.04R
DES MOINES     MOSUNNY   75  55  49 N17G33    30.04R
6HR MIN TEMP:  74; 6HR MAX TEMP:  80;

GRINNELL*      MOSUNNY   72  59  64 NW12G17   30.02S
KNOXVILLE *    SUNNY     73  55  53 NW17G26   30.02R
MARSHALLTOWN   MOSUNNY   72  59  63 NW20G26   30.01R
6HR MIN TEMP:  71; 6HR MAX TEMP:  75;

PELLA *        SUNNY     74  57  56 NW15G22   30.03S
PERRY *        PTSUNNY   73  57  56 NW14G21   30.07S
$$

IAZ004>006-015-016-023>025-035-036-280100-
   NORTH CENTRAL IOWA

CITY           SKY/WX    TMP DP  RH WIND       PRES   REMARKS
ALGONA *       PTSUNNY   72  59  64 NW14G22   30.07S
CLARION *      MOSUNNY   72  59  64 NW17G25   30.04S
ESTHERVILLE    MOSUNNY   70  58  65 NW21G29   30.08R
6HR MIN TEMP:  65; 6HR MAX TEMP:  71;

FORT DODGE *   CLOUDY    72  57  60 NW8G16    30.07S
MASON CITY     PTSUNNY   69  60  73 NW16      30.04R
6HR MIN TEMP:  69; 6HR MAX TEMP:  74;

FOREST CITY *  CLOUDY    68  63  83 NE8       30.03S
IOWA FALLS *     N/A     72  59  64 NW16G23   30.04R
$$

IAZ007>011-017>019-026>030-037>042-050>054-066-280100-
   NORTHEAST IOWA

CITY           SKY/WX    TMP DP  RH WIND       PRES   REMARKS
CEDAR RAPIDS   PTSUNNY   71  61  70 NW12      29.96R
6HR MIN TEMP:  69; 6HR MAX TEMP:  76; 6HR PCP: TRACE;

CHARLES CITY * CLOUDY    72  59  64 NW13G21   29.99S
CLINTON *      SUNNY     73  59  60 NW16G23   29.92S
DECORAH *      MOSUNNY   73  59  60 NW17      29.94R
DUBUQUE        PTSUNNY   72  58  61 NW20      29.91R
6HR MIN TEMP:  71; 6HR MAX TEMP:  74;

MONTICELLO *   SUNNY     73  61  64 NW15G25   29.93R
OELWEIN *      PTSUNNY   72  61  68 NW12G21   29.97R
WATERLOO       MOSUNNY   74  59  59 NW21      29.96R
6HR MIN TEMP:  69; 6HR MAX TEMP:  76; 6HR PCP: TRACE;

$$

IAZ064-065-067-068-078-280100-
   EAST CENTRAL IOWA

CITY           SKY/WX    TMP DP  RH WIND       PRES   REMARKS
DAVENPORT      MOSUNNY   73  59  61 NW15G22   29.92R
6HR MIN TEMP:  72; 6HR MAX TEMP:  77;

IOWA CITY      MOSUNNY   73  59  61 NW14G25   29.97R
6HR MIN TEMP:  73; 6HR MAX TEMP:  77;

MT. PLEASANT * SUNNY     75  54  48 NW10G22   29.98R
MUSCATINE *    MOSUNNY   75  59  57 NW20G26   29.94S
QUAD CITIES    CLOUDY    74  58  57 NW18G25   29.91R
6HR MIN TEMP:  74; 6HR MAX TEMP:  82;

$$

IAZ062-063-075>077-085>089-095>099-280100-
   SOUTHEAST IOWA

CITY           SKY/WX    TMP DP  RH WIND       PRES   REMARKS
BURLINGTON     MOSUNNY   75  58  55 NW16G23   29.96R
6HR MIN TEMP:  75; 6HR MAX TEMP:  82;

FAIRFIELD *    SUNNY     73  59  60 NW10G21   29.99S
FORT MADISON * MOSUNNY   75  57  53 NW15G24   29.98R
KEOKUK *       MOSUNNY   75  59  57 NW10G16   29.97R
OSKALOOSA *      N/A     73  58  59 NW15G21   30.02R
CENTERVILLE *  MOSUNNY   75  59  57 NW12G18   30.05R
OTTUMWA        SUNNY     73  57  57 NW16G24   30.01R
6HR MIN TEMP:  73; 6HR MAX TEMP:  79;

WASHINGTON *   PTSUNNY   73  59  60 NW20G26   29.98R
$$

ABBREVIATIONS USED IN REMARKS
   TC - TEMPERATURES IN CELSIUS
  WCI - WIND CHILL INDEX
   HX - HEAT INDEX
  VSB - VISIBILITY
$$



USA.gov is the U.S. government's official web portal to all federal, state and local government web resources and services.